Preview of NWS' New Version of Forecast
This preview is not operational and should not be used for support decisions.

Regional Weather Roundup (RWR)

Issued by Gray - Portland, ME (GYX)

                            
000
ASUS41 KGYX 211505
RWRGYX
WEATHER ROUNDUP FOR MAINE AND NEW HAMPSHIRE
NATIONAL WEATHER SERVICE GRAY ME
1100 AM EDT SAT SEP 21 2019

MEZ002-005-006-010-012-015-018-020-021-024-026-027-029-211600-
MAINE
  
CITY           SKY/WX    TMP DP  RH WIND       PRES   REMARKS
PORTLAND       FAIR      77  59  53 VRB7      30.18F                  
SANFORD        FAIR      76  61  59 VRB3      30.19F                  
BAR HARBOR     FAIR      71  51  49 N10       30.16S                  
WISCASSET      FAIR      75  58  55 MISG      30.18F                  
ROCKLAND       FAIR      74  60  61 NE5       30.16F                  
FRYEBURG       FAIR      78  59  51 VRB5      30.19F                  
LEWISTONAUBURN FAIR      74  61  63 N10       30.18F                  
AUGUSTA        FAIR      74  60  61 N9        30.19S                  
WATERVILLE     FAIR      73  60  63 NW7       30.16F                  
BANGOR         FAIR      72  53  51 NE8       30.18S                  
GREENVILLE       N/A     67  49  52 NW10      30.19S                  
MILLINOCKET    FAIR      70  46  42 NW8       30.18F                  
HOULTON        FAIR      66  46  48 N9        30.16F                  
PRESQUE ISLE   FAIR      64  44  48 N9        30.17F                  
FRENCHVILLE    FAIR      61  44  53 N9        30.18F                  
CARIBOU        FAIR      66  43  43 NW9       30.16F                  
$$

NHZ002-005-008-009-011-012-014-211600-
NEW HAMPSHIRE
  
CITY           SKY/WX    TMP DP  RH WIND       PRES   REMARKS
PORTSMOUTH     SUNNY     76  59  55 W3        30.18S                  
ROCHESTER      FAIR      77  59  53 VRB3      30.19S                  
NASHUA         FAIR      76  60  57 NW7       30.21F                  
MANCHESTER     FAIR      77  57  50 VRB6      30.20S                  
CONCORD        FAIR      74  57  55 NW7       30.21F                  
LACONIA        FAIR      74  60  61 S5        30.21S                  
PLYMOUTH       FAIR      73  58  57 NW6       30.21F                  
BERLIN         FAIR      73  58  59 NW5       30.22F                  
WHITEFIELD     FAIR      71  57  61 VRB5      30.24F                  
JAFFREY        FAIR      75  58  55 CALM      30.25S                  
KEENE          FAIR      68  55  63 CALM      30.24F                  
LEBANON        FAIR      69  54  58 W3        30.24F                  
MT WASHINGTON  MOSUNNY   50  45  81 NW32G46     N/A                   
$$

VTZ005-007-008-211600-
VERMONT
  
CITY           SKY/WX    TMP DP  RH WIND       PRES   REMARKS
ST JOHNSBURY     N/A     67  56  67 MISG      30.21F                  
MONTPELIER     FAIR      68  56  65 CALM      30.29F                  
BURLINGTON     FAIR      72  53  51 VRB5      30.23F                  
$$

MAZ007-012-024-CTZ003-RIZ002-NYZ038-NYZ072-211600-
SOUTHERN NEW ENGLAND AND NY
  
CITY           SKY/WX    TMP DP  RH WIND       PRES   REMARKS
BOSTON         FAIR      80  55  42 VRB5      30.20S                  
WORCESTER      FAIR      74  58  57 CALM      30.24S                  
NANTUCKET      FAIR      75  59  57 VRB7      30.19S                  
PROVIDENCE     FAIR      78  53  41 CALM      30.21S                  
HARTFORD       FAIR      72  54  53 VRB5      30.23R                  
ALBANY         FAIR      70  55  59 CALM      30.26S                  
NEW YORK CITY  PTSUNNY   73  54  49 CALM      30.23S                  
$$

ANZ081-ANZ082-ANZ150-NHZ014-MEZ023>029-211600-
COASTAL MARINE OBSERVATIONS
  
STATION/POSITION TIME  TEMP    WIND        PRES    WAVE
                       AIR SEA DIR/SP/G            HT/PER
                 (UTC) (F)     (DEG/KT/KT) (MB)    (FT/S)
MOUNT DESERT ROC 1400          300/ 13/ 13 1020.8R
MATINICUS ROCK   1450   61                 1021.2R
ISLE OF SHOALS   1400   66     310/  7/  8 1021.9R
JEFFREYS LEDGE   1438      62                N/A     5/13
CASHES LEDGE BUO 1450   62 60  320/  8/ 10 1022.2R   4/12
GEORGES BANK BUO 1450   61 59              1020.7F   5/11
$$

.............KEY..............
   WCI - WIND CHILL
   TC  - TEMPERATURE IN CELSIUS
   VSB - VISIBILITY IN MILES
   HX  - HEAT INDEX
   FAIR- INDICATES FEW OR NO CLOUDS BELOW 12,000 FT, WITH NO 
         SIGNIFICANT WEATHER AND/OR OBSTRUCTIONS TO VISIBILITY.